WA9AFM-10 Weather Reports


Display with metric or nautical units.
time (UTC)temp
F
wind
direction
speed
MPH
gust
MPH
rain 1hr
in
rain 24hr
in
rain mn
in
humidity
%
barometer
mb
20260509121302 54 314 0.0 0.0 0.00 0.00 0.00 98 1005.7
20260509121148 54 314 0.0 0.0 0.00 0.00 0.00 98 1005.7
20260509114150 54 314 0.0 0.0 0.00 0.00 0.00 98 1005.3
20260509111242 54 314 0.0 0.0 0.00 0.00 0.00 98 1005.0
20260509111149 54 314 0.0 0.0 0.00 0.00 0.00 98 1005.0
20260509104223 55 314 0.0 0.0 0.00 0.00 0.00 98 1004.9
20260509104148 55 314 0.0 0.0 0.00 0.00 0.00 98 1004.9
20260509101230 56 314 0.0 0.0 0.00 0.00 0.00 98 1005.3
20260509101148 56 314 0.0 0.0 0.00 0.00 0.00 98 1005.3
20260509091149 56 314 0.0 0.0 0.00 0.00 0.00 98 1005.4
20260509084148 56 314 0.0 0.0 0.00 0.00 0.00 98 1005.2
20260509081148 57 318 0.0 0.0 0.00 0.00 0.00 98 1005.5
20260509074149 57 317 0.0 0.0 0.00 0.00 0.00 98 1005.8
20260509071147 58 317 0.0 0.0 0.00 0.00 0.00 98 1005.9
20260509064148 59 318 0.0 0.0 0.00 0.00 0.00 98 1006.1
20260509051147 61 198 0.0 0.0 0.00 0.00 0.00 98 1005.9
20260509044148 60 211 0.0 0.0 0.00 0.00 0.00 98 1005.8
20260509034241 61 332 3.0 0.0 0.00 0.00 0.00 98 1005.5
20260509034148 61 332 3.0 0.0 0.00 0.00 0.00 98 1005.5
20260509024226 61 197 0.0 0.0 0.00 0.00 0.00 97 1004.1
20260509024149 61 197 0.0 0.0 0.00 0.00 0.00 97 1004.1
20260509014147 62 274 0.0 0.0 0.00 0.00 0.00 97 1003.5
20260509004148 64 61 0.0 0.0 0.00 0.00 0.00 96 1002.4
20260509001148 64 319 0.0 0.0 0.00 0.00 0.00 96 1001.6
20260508234147 63 40 0.0 0.0 0.00 0.00 0.00 94 1002.0
20260508231148 78 162 1.0 0.0 0.00 0.00 0.00 56 1002.8
20260508224147 81 158 0.0 0.0 0.00 0.00 0.00 51 1000.8
20260508221149 84 9 0.0 0.0 0.00 0.00 0.00 49 1000.7
20260508214147 88 37 0.0 0.0 0.00 0.00 0.00 46 1001.5
20260508211149 85 43 1.0 0.0 0.00 0.00 0.00 47 1002.2
20260508201148 85 277 2.0 0.0 0.00 0.00 0.00 49 1003.1
20260508191151 84 61 5.0 0.0 0.00 0.00 0.00 51 1003.8
20260508184147 82 349 3.0 0.0 0.00 0.00 0.00 52 1004.3
20260508181149 81 318 1.0 0.0 0.00 0.00 0.00 50 1004.8
20260508164148 76 36 1.0 0.0 0.00 0.00 0.00 52 1006.5
20260508161149 74 47 2.0 0.0 0.00 0.00 0.00 53 1007.0
20260508154147 72 61 1.0 0.0 0.00 0.00 0.00 57 1007.4
20260508151148 70 52 0.0 0.0 0.00 0.00 0.00 61 1007.8
20260508141149 66 241 4.0 0.0 0.00 0.00 0.00 66 1008.2
20260508134147 63 46 0.0 0.0 0.00 0.00 0.00 71 1008.6
20260508131148 59 329 0.0 0.0 0.00 0.00 0.00 79 1008.7